Zurück zum Katalog

ARIANE 2 DEB

AktivHEO
NORAD 26728·DEBRIS·🇫🇷 France

Gestartet Jan 27, 1989 von Guiana Space Centre

Loading…

Nächste Überflüge (nächste 24 Stunden)

TLE

AktuellSource: Space-Track

Epoche: Sep 13, 2026, 21:53 UTC

1 26728U 89006F   26256.91205882 -.00000035  00000-0  29485-3 0  9994
2 26728   7.6002 164.3432 7018975 254.8236  23.5710  2.49779279222406

Verfolge ARIANE 2 DEB in Echtzeit mit AllMySat

Download on the App Store